sat.trackr.live / text

‹ back to catalog

ONEWEB-0664

NORAD 55824 · 2023-029AE

PAYLOAD ACTIVE UNKNOWN

§ Identity

Operator
Country
UK
Launch date
2023-03-09
Launch site
AFETR
Launch vehicle
Mass (kg)
RCS (m²)

Purposes: comms

External: N2YO · Heavens-Above · Gunter

§ Orbital elements

Epoch: 2026-09-19T23:06:17.884800Z

Period
109.03 min
Inclination
87.9134°
Eccentricity
0.0002321
Mean motion
13.20774157 rev/d
Perigee alt
1,180.0 km
Apogee alt
1,183.5 km
Semi-major
7,559.9 km
B*
-5.6288e-6
RAAN
255.5659°
Arg perigee
86.3799°
Mean anomaly
273.7599°
Rev number
17,365

§ Raw data

ONEWEB-06641 55824U 23029AE  26262.96270700  .00000011  00000+0 -56288-5 0  99952 55824  87.9134 255.5659 0002321  86.3799 273.7599 13.20774157173656

JSON: /api/v1/satellites/55824 · /tle

For live sub-satellite position, see the globe view (requires WebGL).

§ Visibility from observer

Set your observer location to see the next 7 days of passes ≥ 10°. The values pass through the URL so the page stays shareable.

No JS? Fill the form by hand. The geolocation button needs JavaScript.